User: anonymous
Location: Fort Wayne
(41.1310°N, 85.1290°W)
Time: 02:12:40
(UTC-04:00)
Language:

Meteor 2-10 Rocket - Orbit

View from above orbital plane
View from above orbital plane
View from above satellite
View from above satellite

Ground track
Ground track

The orbit data is extracted from the following two-line orbital elements,

1 14453U 83109B   14113.76421388  .00000191  00000-0  72102-4 0  1255
2 14453 081.1675 183.4931 0106016 151.0521 348.9078 14.24484873583735
Epoch (UTC): 23 April 2014 18:20:28
Eccentricity: 0.0106016
inclination: 81.1675°
perigee height: 734 km
apogee height: 886 km
right ascension of ascending node: 183.4931°
argument of perigee: 151.0521°
revolutions per day: 14.24484873
mean anomaly at epoch: 348.9078°
orbit number at epoch: 58373

The dashed part of the orbit path shows where the satellite is in the earth's shadow,  

DLR